| time (UTC) | temp C | wind direction | speed KPH | gust KPH | rain 1hr cm | rain 24hr cm | rain mn cm | humidity % | barometer mb |
| 20260506185455 | 28 | 185 | 0.0 | 0.0 | 0.00 | 0.00 | 0.00 | 86 | 1007.2 |
| 20260506184955 | 28 | 185 | 0.0 | 0.0 | 0.00 | 0.00 | 0.00 | 86 | 1007.3 |
| 20260506184455 | 28 | 185 | 0.0 | 0.0 | 0.00 | 0.00 | 0.00 | 87 | 1007.3 |
| 20260506183955 | 28 | 185 | 0.0 | 0.0 | 0.00 | 0.00 | 0.00 | 86 | 1007.4 |
| 20260506183455 | 28 | 185 | 0.0 | 0.0 | 0.00 | 0.00 | 0.00 | 86 | 1007.4 |
| 20260506182955 | 28 | 185 | 0.0 | 0.0 | 0.00 | 0.00 | 0.00 | 86 | 1007.4 |
| 20260506182455 | 28 | 185 | 0.0 | 0.0 | 0.00 | 0.00 | 0.00 | 87 | 1007.4 |
| 20260506181955 | 28 | 185 | 0.0 | 0.0 | 0.00 | 0.00 | 0.00 | 87 | 1007.5 |
| 20260506181455 | 28 | 185 | 0.0 | 0.0 | 0.00 | 0.00 | 0.00 | 86 | 1007.7 |
| 20260506180955 | 28 | 185 | 0.0 | 0.0 | 0.00 | 0.00 | 0.00 | 86 | 1007.7 |
| 20260506180455 | 28 | 185 | 0.0 | 0.0 | 0.00 | 0.00 | 0.00 | 86 | 1007.7 |
| 20260506175955 | 28 | 185 | 0.0 | 0.0 | 0.00 | 0.00 | 0.00 | 86 | 1007.7 |
| 20260506175455 | 28 | 185 | 0.0 | 4.8 | 0.00 | 0.00 | 0.00 | 86 | 1007.7 |
| 20260506174955 | 28 | 185 | 0.0 | 6.4 | 0.00 | 0.00 | 0.00 | 86 | 1007.7 |
| 20260506174455 | 28 | 181 | 0.0 | 0.0 | 0.00 | 0.00 | 0.00 | 87 | 1007.8 |
| 20260506173955 | 28 | 180 | 0.0 | 0.0 | 0.00 | 0.00 | 0.00 | 87 | 1007.8 |
| 20260506173455 | 28 | 180 | 0.0 | 0.0 | 0.00 | 0.00 | 0.00 | 87 | 1007.9 |
| 20260506172955 | 28 | 180 | 0.0 | 0.0 | 0.00 | 0.00 | 0.00 | 87 | 1008.0 |
| 20260506172455 | 28 | 180 | 0.0 | 0.0 | 0.00 | 0.00 | 0.00 | 87 | 1008.0 |
| 20260506171955 | 28 | 180 | 0.0 | 0.0 | 0.00 | 0.00 | 0.00 | 87 | 1008.0 |
| 20260506171455 | 28 | 180 | 0.0 | 0.0 | 0.00 | 0.00 | 0.00 | 86 | 1008.0 |
| 20260506170955 | 28 | 180 | 0.0 | 0.0 | 0.00 | 0.00 | 0.00 | 86 | 1008.3 |
| 20260506170455 | 28 | 180 | 0.0 | 0.0 | 0.00 | 0.00 | 0.00 | 89 | 1008.1 |
| 20260506165955 | 28 | 180 | 0.0 | 0.0 | 0.00 | 0.00 | 0.00 | 89 | 1008.1 |
| 20260506165455 | 28 | 180 | 0.0 | 0.0 | 0.00 | 0.00 | 0.00 | 91 | 1008.1 |
| 20260506164955 | 27 | 180 | 1.6 | 6.4 | 0.00 | 0.00 | 0.00 | 90 | 1008.1 |
| 20260506164455 | 27 | 180 | 1.6 | 6.4 | 0.00 | 0.00 | 0.00 | 92 | 1008.2 |
| 20260506163955 | 27 | 180 | 1.6 | 3.2 | 0.00 | 0.00 | 0.00 | 92 | 1008.1 |
| 20260506163455 | 26 | 180 | 1.6 | 4.8 | 0.00 | 0.00 | 0.00 | 92 | 1008.0 |
| 20260506162955 | 26 | 180 | 1.6 | 6.4 | 0.00 | 0.00 | 0.00 | 92 | 1008.0 |
| 20260506162455 | 26 | 180 | 0.0 | 4.8 | 0.00 | 0.00 | 0.00 | 93 | 1008.1 |
| 20260506161955 | 26 | 180 | 0.0 | 0.0 | 0.00 | 0.00 | 0.00 | 93 | 1008.0 |
| 20260506161455 | 26 | 180 | 0.0 | 0.0 | 0.00 | 0.00 | 0.00 | 93 | 1008.0 |
| 20260506160955 | 26 | 180 | 0.0 | 0.0 | 0.00 | 0.00 | 0.00 | 93 | 1008.0 |
| 20260506160455 | 26 | 180 | 0.0 | 0.0 | 0.00 | 0.00 | 0.00 | 93 | 1008.1 |
| 20260506155955 | 26 | 180 | 0.0 | 0.0 | 0.00 | 0.00 | 0.00 | 93 | 1008.1 |
| 20260506155455 | 26 | 180 | 0.0 | 0.0 | 0.00 | 0.00 | 0.00 | 93 | 1008.1 |
| 20260506154955 | 26 | 180 | 0.0 | 0.0 | 0.00 | 0.00 | 0.00 | 93 | 1007.9 |
| 20260506154455 | 26 | 180 | 0.0 | 0.0 | 0.00 | 0.00 | 0.00 | 93 | 1007.7 |
| 20260506153955 | 26 | 180 | 0.0 | 0.0 | 0.00 | 0.00 | 0.00 | 94 | 1007.6 |
| 20260506153455 | 26 | 180 | 0.0 | 0.0 | 0.00 | 0.00 | 0.00 | 94 | 1007.6 |
| 20260506152955 | 26 | 180 | 0.0 | 0.0 | 0.00 | 0.00 | 0.00 | 94 | 1007.6 |
| 20260506152455 | 26 | 180 | 0.0 | 0.0 | 0.00 | 0.00 | 0.00 | 94 | 1007.7 |
| 20260506151955 | 26 | 180 | 0.0 | 0.0 | 0.00 | 0.00 | 0.00 | 94 | 1007.6 |
| 20260506151455 | 26 | 180 | 0.0 | 0.0 | 0.00 | 0.00 | 0.00 | 95 | 1007.4 |
| 20260506150955 | 26 | 182 | 0.0 | 0.0 | 0.00 | 0.00 | 0.00 | 95 | 1007.5 |
| 20260506150455 | 26 | 182 | 0.0 | 0.0 | 0.00 | 0.00 | 0.00 | 95 | 1007.3 |
| 20260506145955 | 26 | 182 | 0.0 | 0.0 | 0.00 | 0.00 | 0.00 | 95 | 1007.2 |
| 20260506145455 | 26 | 182 | 0.0 | 0.0 | 0.00 | 0.00 | 0.00 | 95 | 1007.2 |
| 20260506144955 | 25 | 182 | 0.0 | 0.0 | 0.00 | 0.00 | 0.00 | 96 | 1007.0 |
| 20260506144455 | 25 | 182 | 0.0 | 0.0 | 0.00 | 0.00 | 0.00 | 96 | 1007.0 |
| 20260506143955 | 25 | 182 | 0.0 | 0.0 | 0.00 | 0.00 | 0.00 | 96 | 1006.9 |
| 20260506143455 | 25 | 182 | 0.0 | 0.0 | 0.00 | 0.00 | 0.00 | 96 | 1006.9 |
| 20260506142955 | 25 | 182 | 0.0 | 0.0 | 0.00 | 0.00 | 0.00 | 96 | 1007.1 |
| 20260506142455 | 25 | 182 | 0.0 | 0.0 | 0.00 | 0.00 | 0.00 | 96 | 1007.0 |
| 20260506141955 | 25 | 182 | 0.0 | 0.0 | 0.00 | 0.00 | 0.00 | 96 | 1007.2 |
| 20260506141455 | 25 | 182 | 0.0 | 0.0 | 0.00 | 0.00 | 0.00 | 96 | 1007.3 |
| 20260506140955 | 25 | 182 | 0.0 | 0.0 | 0.00 | 0.00 | 0.00 | 96 | 1007.2 |
| 20260506140455 | 25 | 182 | 0.0 | 0.0 | 0.00 | 0.00 | 0.00 | 96 | 1007.3 |
| 20260506135955 | 25 | 182 | 0.0 | 0.0 | 0.00 | 0.00 | 0.00 | 96 | 1007.3 |
| 20260506135455 | 25 | 182 | 0.0 | 0.0 | 0.00 | 0.00 | 0.00 | 96 | 1007.3 |
| 20260506134955 | 25 | 182 | 0.0 | 0.0 | 0.00 | 0.00 | 0.00 | 96 | 1007.3 |
| 20260506134455 | 25 | 182 | 0.0 | 0.0 | 0.00 | 0.00 | 0.00 | 96 | 1007.2 |
| 20260506133955 | 25 | 182 | 0.0 | 0.0 | 0.00 | 0.00 | 0.00 | 96 | 1007.3 |
| 20260506133455 | 25 | 182 | 0.0 | 0.0 | 0.00 | 0.00 | 0.00 | 96 | 1007.4 |
| 20260506132955 | 25 | 182 | 0.0 | 0.0 | 0.00 | 0.00 | 0.00 | 96 | 1007.3 |
| 20260506132455 | 25 | 182 | 0.0 | 0.0 | 0.00 | 0.00 | 0.00 | 96 | 1007.4 |
| 20260506131955 | 25 | 182 | 0.0 | 0.0 | 0.00 | 0.00 | 0.00 | 96 | 1007.3 |
| 20260506131455 | 25 | 182 | 0.0 | 0.0 | 0.00 | 0.00 | 0.00 | 96 | 1007.4 |
| 20260506130955 | 25 | 182 | 0.0 | 0.0 | 0.00 | 0.00 | 0.00 | 96 | 1007.3 |
| 20260506130455 | 25 | 182 | 0.0 | 0.0 | 0.00 | 0.00 | 0.00 | 96 | 1007.5 |
| 20260506125955 | 25 | 182 | 0.0 | 0.0 | 0.00 | 0.00 | 0.00 | 96 | 1007.4 |
| 20260506125455 | 25 | 182 | 0.0 | 0.0 | 0.00 | 0.00 | 0.00 | 96 | 1007.3 |
| 20260506124955 | 25 | 182 | 0.0 | 0.0 | 0.00 | 0.00 | 0.00 | 96 | 1007.2 |
| 20260506124455 | 25 | 182 | 0.0 | 0.0 | 0.00 | 0.00 | 0.00 | 96 | 1007.1 |
| 20260506123955 | 25 | 182 | 0.0 | 0.0 | 0.00 | 0.00 | 0.00 | 96 | 1007.1 |
| 20260506123455 | 25 | 182 | 0.0 | 0.0 | 0.00 | 0.00 | 0.00 | 96 | 1007.1 |
| 20260506122955 | 25 | 182 | 0.0 | 0.0 | 0.00 | 0.00 | 0.00 | 96 | 1007.1 |
| 20260506122455 | 24 | 182 | 0.0 | 0.0 | 0.00 | 0.00 | 0.00 | 96 | 1007.0 |
| 20260506121955 | 24 | 182 | 0.0 | 0.0 | 0.00 | 0.00 | 0.00 | 96 | 1007.0 |
| 20260506121455 | 24 | 182 | 0.0 | 0.0 | 0.00 | 0.00 | 0.00 | 96 | 1006.9 |
| 20260506120955 | 24 | 182 | 0.0 | 0.0 | 0.00 | 0.00 | 0.00 | 96 | 1007.0 |
| 20260506120455 | 24 | 182 | 0.0 | 0.0 | 0.00 | 0.00 | 0.00 | 96 | 1006.9 |
| 20260506115955 | 24 | 182 | 0.0 | 0.0 | 0.00 | 0.00 | 0.00 | 96 | 1006.7 |
| 20260506115455 | 24 | 182 | 0.0 | 0.0 | 0.00 | 0.00 | 0.00 | 96 | 1006.6 |
| 20260506114955 | 24 | 182 | 0.0 | 0.0 | 0.00 | 0.00 | 0.00 | 96 | 1006.6 |
| 20260506114455 | 24 | 182 | 0.0 | 1.6 | 0.00 | 0.00 | 0.00 | 96 | 1006.5 |
| 20260506113955 | 24 | 182 | 0.0 | 6.4 | 0.00 | 0.00 | 0.00 | 96 | 1006.3 |
| 20260506113455 | 24 | 183 | 0.0 | 0.0 | 0.00 | 0.00 | 0.00 | 96 | 1006.3 |
| 20260506112955 | 24 | 183 | 0.0 | 0.0 | 0.00 | 0.00 | 0.00 | 96 | 1006.3 |
| 20260506112455 | 24 | 183 | 0.0 | 0.0 | 0.00 | 0.00 | 0.00 | 96 | 1006.2 |
| 20260506111955 | 24 | 183 | 0.0 | 0.0 | 0.00 | 0.00 | 0.00 | 96 | 1006.2 |
| 20260506111455 | 24 | 183 | 0.0 | 0.0 | 0.00 | 0.00 | 0.00 | 96 | 1006.2 |
| 20260506110955 | 24 | 183 | 0.0 | 0.0 | 0.00 | 0.00 | 0.00 | 96 | 1006.2 |
| 20260506110455 | 24 | 183 | 0.0 | 0.0 | 0.00 | 0.00 | 0.00 | 95 | 1006.2 |
| 20260506105955 | 24 | 183 | 0.0 | 0.0 | 0.00 | 0.00 | 0.00 | 96 | 1006.1 |
| 20260506105455 | 24 | 183 | 0.0 | 0.0 | 0.00 | 0.00 | 0.00 | 96 | 1006.1 |
| 20260506104955 | 24 | 183 | 0.0 | 0.0 | 0.00 | 0.00 | 0.00 | 95 | 1006.2 |
| 20260506104455 | 24 | 183 | 0.0 | 0.0 | 0.00 | 0.00 | 0.00 | 95 | 1006.1 |
| 20260506103955 | 24 | 183 | 0.0 | 0.0 | 0.00 | 0.00 | 0.00 | 95 | 1006.2 |
| 20260506103455 | 24 | 183 | 0.0 | 1.6 | 0.00 | 0.00 | 0.00 | 95 | 1006.1 |
| 20260506102955 | 24 | 183 | 0.0 | 1.6 | 0.00 | 0.00 | 0.00 | 95 | 1006.2 |
| 20260506102455 | 24 | 183 | 0.0 | 0.0 | 0.00 | 0.00 | 0.00 | 95 | 1006.2 |
| 20260506101955 | 24 | 183 | 0.0 | 1.6 | 0.00 | 0.00 | 0.00 | 95 | 1006.2 |
| 20260506101455 | 24 | 183 | 1.6 | 3.2 | 0.00 | 0.00 | 0.00 | 95 | 1006.0 |
| 20260506100955 | 24 | 183 | 1.6 | 3.2 | 0.00 | 0.00 | 0.00 | 95 | 1005.9 |
| 20260506100455 | 24 | 183 | 1.6 | 1.6 | 0.00 | 0.00 | 0.00 | 95 | 1005.9 |
| 20260506095955 | 24 | 183 | 0.0 | 3.2 | 0.00 | 0.00 | 0.00 | 95 | 1005.9 |
| 20260506095455 | 24 | 183 | 0.0 | 6.4 | 0.00 | 0.00 | 0.00 | 95 | 1005.7 |
| 20260506094955 | 24 | 184 | 0.0 | 3.2 | 0.00 | 0.00 | 0.00 | 95 | 1005.8 |
| 20260506094455 | 24 | 184 | 0.0 | 4.8 | 0.00 | 0.00 | 0.00 | 95 | 1005.7 |
| 20260506093956 | 24 | 184 | 0.0 | 0.0 | 0.00 | 0.00 | 0.00 | 95 | 1005.8 |
| 20260506093455 | 24 | 184 | 0.0 | 0.0 | 0.00 | 0.00 | 0.00 | 95 | 1005.9 |
| 20260506092956 | 24 | 184 | 0.0 | 0.0 | 0.00 | 0.00 | 0.00 | 95 | 1006.0 |
| 20260506092456 | 24 | 184 | 0.0 | 0.0 | 0.00 | 0.00 | 0.00 | 95 | 1005.9 |
| 20260506091956 | 24 | 184 | 0.0 | 0.0 | 0.00 | 0.00 | 0.00 | 95 | 1005.8 |
| 20260506091455 | 24 | 184 | 0.0 | 0.0 | 0.00 | 0.00 | 0.00 | 95 | 1006.0 |
| 20260506090956 | 24 | 184 | 0.0 | 0.0 | 0.00 | 0.00 | 0.00 | 95 | 1006.0 |
| 20260506090456 | 24 | 184 | 0.0 | 0.0 | 0.00 | 0.00 | 0.00 | 95 | 1005.9 |
| 20260506085956 | 24 | 184 | 0.0 | 0.0 | 0.00 | 0.00 | 0.00 | 95 | 1005.9 |
| 20260506085456 | 24 | 184 | 0.0 | 0.0 | 0.00 | 0.00 | 0.00 | 95 | 1006.0 |
| 20260506084956 | 24 | 184 | 1.6 | 0.0 | 0.00 | 0.00 | 0.00 | 95 | 1006.1 |
| 20260506084456 | 24 | 184 | 1.6 | 3.2 | 0.00 | 0.00 | 0.00 | 95 | 1006.1 |
| 20260506083956 | 24 | 184 | 1.6 | 3.2 | 0.00 | 0.00 | 0.00 | 95 | 1006.0 |
| 20260506083456 | 24 | 184 | 0.0 | 1.6 | 0.00 | 0.00 | 0.00 | 94 | 1006.0 |
| 20260506082956 | 24 | 184 | 0.0 | 0.0 | 0.00 | 0.00 | 0.00 | 94 | 1006.1 |
| 20260506082456 | 24 | 184 | 0.0 | 0.0 | 0.00 | 0.00 | 0.00 | 94 | 1006.2 |
| 20260506081956 | 24 | 184 | 0.0 | 0.0 | 0.00 | 0.00 | 0.00 | 94 | 1006.3 |
| 20260506081456 | 24 | 184 | 0.0 | 0.0 | 0.00 | 0.00 | 0.00 | 94 | 1006.4 |
| 20260506080956 | 24 | 184 | 0.0 | 0.0 | 0.00 | 0.00 | 0.00 | 94 | 1006.4 |
| 20260506080456 | 24 | 184 | 0.0 | 0.0 | 0.00 | 0.00 | 0.00 | 94 | 1006.4 |
| 20260506073456 | 25 | 184 | 0.0 | 0.0 | 0.00 | 0.00 | 0.00 | 94 | 1006.9 |
| 20260506072956 | 25 | 184 | 0.0 | 0.0 | 0.00 | 0.00 | 0.00 | 94 | 1006.8 |
| 20260506072456 | 25 | 184 | 0.0 | 0.0 | 0.00 | 0.00 | 0.00 | 94 | 1006.9 |
| 20260506071956 | 25 | 184 | 0.0 | 0.0 | 0.00 | 0.00 | 0.00 | 94 | 1007.0 |
| 20260506071456 | 25 | 184 | 0.0 | 0.0 | 0.00 | 0.00 | 0.00 | 94 | 1007.0 |
| 20260506071010 | 25 | 184 | 1.6 | 1.6 | 0.00 | 0.00 | 0.00 | 94 | 1007.0 |
| 20260506070456 | 25 | 184 | 1.6 | 3.2 | 0.00 | 0.00 | 0.00 | 94 | 1007.1 |
| 20260506062456 | 25 | 184 | 0.0 | 0.0 | 0.00 | 0.00 | 0.00 | 93 | 1007.0 |
| 20260506061956 | 25 | 184 | 0.0 | 0.0 | 0.00 | 0.00 | 0.00 | 93 | 1006.9 |
| 20260506061456 | 25 | 184 | 1.6 | 4.8 | 0.00 | 0.00 | 0.00 | 93 | 1006.8 |
| 20260506060956 | 25 | 184 | 1.6 | 4.8 | 0.00 | 0.00 | 0.00 | 93 | 1006.9 |
| 20260506060456 | 25 | 184 | 1.6 | 4.8 | 0.00 | 0.00 | 0.00 | 93 | 1006.9 |
| 20260506050956 | 25 | 182 | 0.0 | 0.0 | 0.00 | 0.00 | 0.00 | 93 | 1007.2 |
| 20260506050456 | 25 | 182 | 1.6 | 4.8 | 0.00 | 0.00 | 0.00 | 93 | 1007.1 |
| 20260506044956 | 25 | 178 | 3.2 | 6.4 | 0.00 | 0.00 | 0.00 | 93 | 1006.9 |
| 20260506044456 | 25 | 178 | 3.2 | 6.4 | 0.00 | 0.00 | 0.00 | 93 | 1006.9 |
| 20260506043956 | 25 | 178 | 3.2 | 6.4 | 0.00 | 0.00 | 0.00 | 93 | 1007.0 |
| 20260506043456 | 25 | 178 | 3.2 | 6.4 | 0.00 | 0.00 | 0.00 | 93 | 1006.9 |
| 20260506042956 | 25 | 178 | 3.2 | 4.8 | 0.00 | 0.00 | 0.00 | 93 | 1007.0 |
| 20260506042456 | 25 | 178 | 3.2 | 4.8 | 0.00 | 0.00 | 0.00 | 93 | 1007.0 |
| 20260506041956 | 25 | 178 | 3.2 | 6.4 | 0.00 | 0.00 | 0.00 | 93 | 1007.0 |
| 20260506041456 | 25 | 178 | 3.2 | 4.8 | 0.00 | 0.00 | 0.00 | 93 | 1006.9 |
| 20260506040956 | 25 | 178 | 3.2 | 4.8 | 0.00 | 0.00 | 0.00 | 93 | 1006.9 |
| 20260506040456 | 25 | 178 | 3.2 | 8.0 | 0.00 | 0.00 | 0.00 | 93 | 1007.0 |
| 20260506035956 | 25 | 178 | 3.2 | 6.4 | 0.00 | 0.00 | 0.00 | 93 | 1006.9 |
| 20260506035456 | 25 | 178 | 3.2 | 6.4 | 0.00 | 0.00 | 0.00 | 93 | 1006.9 |
| 20260506034956 | 25 | 178 | 4.8 | 6.4 | 0.00 | 0.00 | 0.00 | 93 | 1006.9 |
| 20260506034456 | 25 | 178 | 3.2 | 8.0 | 0.00 | 0.00 | 0.00 | 93 | 1006.9 |
| 20260506033956 | 25 | 178 | 3.2 | 4.8 | 0.00 | 0.00 | 0.00 | 93 | 1006.8 |
| 20260506033456 | 25 | 178 | 3.2 | 6.4 | 0.00 | 0.00 | 0.00 | 93 | 1006.8 |
| 20260506032956 | 25 | 178 | 4.8 | 6.4 | 0.00 | 0.00 | 0.00 | 93 | 1006.8 |
| 20260506032456 | 25 | 180 | 4.8 | 6.4 | 0.00 | 0.00 | 0.00 | 93 | 1006.7 |
| 20260506031956 | 25 | 203 | 3.2 | 4.8 | 0.00 | 0.00 | 0.00 | 93 | 1006.7 |
| 20260506031456 | 25 | 203 | 3.2 | 6.4 | 0.00 | 0.00 | 0.00 | 93 | 1006.7 |
| 20260506030956 | 25 | 203 | 3.2 | 4.8 | 0.00 | 0.00 | 0.00 | 93 | 1006.6 |
| 20260506030456 | 25 | 203 | 3.2 | 6.4 | 0.00 | 0.00 | 0.00 | 93 | 1006.5 |
| 20260506025956 | 25 | 203 | 1.6 | 4.8 | 0.00 | 0.00 | 0.00 | 93 | 1006.5 |
| 20260506025456 | 25 | 203 | 1.6 | 4.8 | 0.00 | 0.00 | 0.00 | 93 | 1006.5 |
| 20260506024956 | 25 | 203 | 1.6 | 4.8 | 0.00 | 0.00 | 0.00 | 93 | 1006.5 |
| 20260506024456 | 25 | 203 | 1.6 | 4.8 | 0.00 | 0.00 | 0.00 | 93 | 1006.5 |
| 20260506023956 | 25 | 203 | 1.6 | 6.4 | 0.00 | 0.00 | 0.00 | 93 | 1006.2 |
| 20260506023456 | 25 | 203 | 0.0 | 3.2 | 0.00 | 0.00 | 0.00 | 93 | 1006.1 |
| 20260506022956 | 25 | 203 | 1.6 | 0.0 | 0.00 | 0.00 | 0.00 | 93 | 1006.0 |
| 20260506022456 | 25 | 203 | 1.6 | 4.8 | 0.00 | 0.00 | 0.00 | 93 | 1006.0 |
| 20260506021956 | 25 | 203 | 1.6 | 3.2 | 0.00 | 0.00 | 0.00 | 92 | 1006.0 |
| 20260506021456 | 25 | 203 | 1.6 | 4.8 | 0.00 | 0.00 | 0.00 | 92 | 1005.9 |
| 20260506020956 | 25 | 203 | 1.6 | 4.8 | 0.00 | 0.00 | 0.00 | 92 | 1005.8 |
| 20260506020456 | 25 | 203 | 0.0 | 4.8 | 0.00 | 0.00 | 0.00 | 92 | 1005.7 |
| 20260506015956 | 25 | 203 | 0.0 | 0.0 | 0.00 | 0.00 | 0.00 | 92 | 1005.7 |
| 20260506015456 | 25 | 203 | 0.0 | 0.0 | 0.00 | 0.00 | 0.00 | 92 | 1005.7 |
| 20260506014956 | 25 | 203 | 0.0 | 0.0 | 0.00 | 0.00 | 0.00 | 91 | 1005.5 |
| 20260506014456 | 25 | 203 | 0.0 | 0.0 | 0.00 | 0.00 | 0.00 | 91 | 1005.6 |
| 20260506013956 | 25 | 203 | 1.6 | 0.0 | 0.00 | 0.00 | 0.00 | 91 | 1005.5 |
| 20260506013456 | 25 | 203 | 3.2 | 4.8 | 0.00 | 0.00 | 0.00 | 91 | 1005.5 |
| 20260506012956 | 25 | 203 | 3.2 | 4.8 | 0.00 | 0.00 | 0.00 | 91 | 1005.4 |
| 20260506012456 | 25 | 203 | 3.2 | 6.4 | 0.00 | 0.00 | 0.00 | 90 | 1005.3 |
| 20260506011956 | 25 | 203 | 4.8 | 6.4 | 0.00 | 0.00 | 0.00 | 90 | 1005.2 |
| 20260506011456 | 25 | 204 | 4.8 | 6.4 | 0.00 | 0.00 | 0.00 | 90 | 1005.1 |
| 20260506010956 | 25 | 204 | 4.8 | 6.4 | 0.00 | 0.00 | 0.00 | 90 | 1004.9 |
| 20260506010456 | 25 | 204 | 3.2 | 6.4 | 0.00 | 0.00 | 0.00 | 90 | 1004.9 |
| 20260506005956 | 25 | 205 | 3.2 | 4.8 | 0.00 | 0.00 | 0.00 | 90 | 1004.8 |
| 20260506005456 | 25 | 185 | 3.2 | 4.8 | 0.00 | 0.00 | 0.00 | 89 | 1004.8 |
| 20260506004956 | 25 | 186 | 3.2 | 8.0 | 0.00 | 0.00 | 0.00 | 89 | 1004.8 |
| 20260506004456 | 25 | 192 | 3.2 | 6.4 | 0.00 | 0.00 | 0.00 | 89 | 1004.8 |
| 20260506003956 | 25 | 192 | 3.2 | 6.4 | 0.00 | 0.00 | 0.00 | 89 | 1004.7 |
| 20260506003457 | 25 | 192 | 3.2 | 8.0 | 0.00 | 0.00 | 0.00 | 89 | 1004.7 |
| 20260506002956 | 25 | 194 | 3.2 | 4.8 | 0.00 | 0.00 | 0.00 | 89 | 1004.7 |
| 20260506002456 | 26 | 194 | 3.2 | 6.4 | 0.00 | 0.00 | 0.00 | 89 | 1004.7 |
| 20260506001956 | 26 | 194 | 4.8 | 8.0 | 0.00 | 0.00 | 0.00 | 89 | 1004.6 |
| 20260506001456 | 26 | 198 | 3.2 | 6.4 | 0.00 | 0.00 | 0.00 | 88 | 1004.7 |
| 20260506000956 | 26 | 184 | 4.8 | 8.0 | 0.00 | 0.00 | 0.00 | 88 | 1004.7 |
| 20260506000456 | 26 | 187 | 3.2 | 8.0 | 0.00 | 0.00 | 0.00 | 88 | 1004.7 |
| 20260505235956 | 26 | 193 | 3.2 | 4.8 | 0.00 | 0.00 | 0.00 | 88 | 1004.7 |
| 20260505235456 | 26 | 194 | 3.2 | 9.7 | 0.00 | 0.00 | 0.00 | 88 | 1004.7 |
| 20260505234956 | 26 | 163 | 3.2 | 8.0 | 0.00 | 0.00 | 0.00 | 88 | 1004.7 |
| 20260505234456 | 26 | 163 | 3.2 | 6.4 | 0.00 | 0.00 | 0.00 | 88 | 1004.7 |
| 20260505233956 | 26 | 141 | 3.2 | 3.2 | 0.00 | 0.00 | 0.00 | 88 | 1004.8 |
| 20260505233456 | 26 | 141 | 3.2 | 6.4 | 0.00 | 0.00 | 0.00 | 87 | 1004.8 |
| 20260505232956 | 26 | 136 | 3.2 | 8.0 | 0.00 | 0.00 | 0.00 | 88 | 1004.8 |
| 20260505232457 | 26 | 198 | 4.8 | 6.4 | 0.00 | 0.00 | 0.00 | 87 | 1004.8 |
| 20260505231957 | 26 | 198 | 4.8 | 8.0 | 0.00 | 0.00 | 0.00 | 87 | 1004.8 |
| 20260505231457 | 26 | 199 | 3.2 | 9.7 | 0.00 | 0.00 | 0.00 | 87 | 1004.8 |
| 20260505230957 | 26 | 208 | 4.8 | 8.0 | 0.00 | 0.00 | 0.00 | 86 | 1004.9 |
| 20260505230457 | 26 | 208 | 4.8 | 8.0 | 0.00 | 0.00 | 0.00 | 86 | 1004.8 |
| 20260505225957 | 27 | 210 | 4.8 | 8.0 | 0.00 | 0.00 | 0.00 | 86 | 1004.8 |
| 20260505225457 | 27 | 213 | 3.2 | 9.7 | 0.00 | 0.00 | 0.00 | 84 | 1004.8 |
| 20260505224957 | 27 | 214 | 4.8 | 8.0 | 0.00 | 0.00 | 0.00 | 84 | 1004.7 |
| 20260505224457 | 27 | 164 | 4.8 | 9.7 | 0.00 | 0.00 | 0.00 | 84 | 1004.6 |
| 20260505223957 | 27 | 164 | 3.2 | 9.7 | 0.00 | 0.00 | 0.00 | 84 | 1004.7 |
| 20260505223457 | 27 | 163 | 4.8 | 11.3 | 0.00 | 0.00 | 0.00 | 83 | 1004.8 |
| 20260505222957 | 27 | 206 | 4.8 | 8.0 | 0.00 | 0.00 | 0.00 | 83 | 1004.9 |
| 20260505222457 | 27 | 191 | 4.8 | 8.0 | 0.00 | 0.00 | 0.00 | 83 | 1004.9 |
| 20260505221957 | 27 | 211 | 4.8 | 9.7 | 0.00 | 0.00 | 0.00 | 85 | 1004.8 |
| 20260505221457 | 27 | 231 | 3.2 | 11.3 | 0.00 | 0.00 | 0.00 | 85 | 1004.8 |
| 20260505220957 | 27 | 196 | 3.2 | 6.4 | 0.00 | 0.00 | 0.00 | 86 | 1004.8 |
| 20260505220457 | 27 | 200 | 3.2 | 8.0 | 0.00 | 0.00 | 0.00 | 86 | 1004.9 |
| 20260505215957 | 27 | 229 | 4.8 | 9.7 | 0.00 | 0.00 | 0.00 | 86 | 1005.0 |
| 20260505215457 | 26 | 168 | 4.8 | 11.3 | 0.00 | 0.00 | 0.00 | 86 | 1005.2 |
| 20260505214957 | 26 | 177 | 4.8 | 9.7 | 0.00 | 0.00 | 0.00 | 86 | 1005.2 |
| 20260505214457 | 26 | 175 | 3.2 | 8.0 | 0.00 | 0.00 | 0.00 | 86 | 1005.3 |
| 20260505213957 | 26 | 174 | 3.2 | 8.0 | 0.00 | 0.00 | 0.00 | 86 | 1005.4 |
| 20260505213457 | 27 | 174 | 4.8 | 8.0 | 0.00 | 0.00 | 0.00 | 85 | 1005.4 |
| 20260505212957 | 27 | 171 | 4.8 | 9.7 | 0.00 | 0.00 | 0.00 | 84 | 1005.4 |
| 20260505212457 | 27 | 146 | 4.8 | 8.0 | 0.00 | 0.00 | 0.00 | 84 | 1005.5 |
| 20260505211957 | 27 | 117 | 4.8 | 9.7 | 0.00 | 0.00 | 0.00 | 84 | 1005.5 |
| 20260505211457 | 27 | 186 | 4.8 | 9.7 | 0.00 | 0.00 | 0.00 | 85 | 1005.6 |
| 20260505210957 | 27 | 192 | 6.4 | 14.5 | 0.00 | 0.00 | 0.00 | 85 | 1005.6 |
| 20260505210457 | 27 | 157 | 6.4 | 12.9 | 0.00 | 0.00 | 0.00 | 85 | 1005.5 |
| 20260505205957 | 27 | 168 | 4.8 | 12.9 | 0.00 | 0.00 | 0.00 | 85 | 1005.6 |
| 20260505205457 | 27 | 216 | 3.2 | 6.4 | 0.00 | 0.00 | 0.00 | 86 | 1005.9 |
| 20260505204957 | 27 | 216 | 3.2 | 8.0 | 0.00 | 0.00 | 0.00 | 85 | 1006.0 |
| 20260505204457 | 27 | 216 | 3.2 | 6.4 | 0.00 | 0.00 | 0.00 | 85 | 1006.1 |
| 20260505203957 | 27 | 218 | 4.8 | 8.0 | 0.00 | 0.00 | 0.00 | 85 | 1006.1 |
| 20260505203457 | 27 | 223 | 4.8 | 8.0 | 0.00 | 0.00 | 0.00 | 85 | 1006.3 |
| 20260505202957 | 27 | 171 | 3.2 | 9.7 | 0.00 | 0.00 | 0.00 | 86 | 1006.1 |
| 20260505202457 | 27 | 202 | 3.2 | 8.0 | 0.00 | 0.00 | 0.00 | 86 | 1006.3 |
| 20260505201957 | 27 | 202 | 3.2 | 8.0 | 0.00 | 0.00 | 0.00 | 86 | 1006.3 |
| 20260505201457 | 27 | 202 | 3.2 | 9.7 | 0.00 | 0.00 | 0.00 | 86 | 1006.4 |
| 20260505200957 | 27 | 203 | 3.2 | 8.0 | 0.00 | 0.00 | 0.00 | 85 | 1006.4 |
| 20260505200457 | 27 | 200 | 3.2 | 8.0 | 0.00 | 0.00 | 0.00 | 85 | 1006.4 |
| 20260505195957 | 27 | 196 | 3.2 | 8.0 | 0.00 | 0.00 | 0.00 | 85 | 1006.4 |
| 20260505195457 | 27 | 199 | 3.2 | 8.0 | 0.00 | 0.00 | 0.00 | 84 | 1006.4 |
| 20260505194957 | 27 | 211 | 3.2 | 4.8 | 0.00 | 0.00 | 0.00 | 86 | 1006.5 |
| 20260505194457 | 27 | 211 | 3.2 | 8.0 | 0.00 | 0.00 | 0.00 | 86 | 1006.5 |
| 20260505193957 | 27 | 211 | 3.2 | 6.4 | 0.00 | 0.00 | 0.00 | 85 | 1006.4 |
| 20260505193457 | 27 | 212 | 3.2 | 8.0 | 0.00 | 0.00 | 0.00 | 85 | 1006.4 |
| 20260505192957 | 27 | 214 | 3.2 | 6.4 | 0.00 | 0.00 | 0.00 | 85 | 1006.4 |
| 20260505192457 | 27 | 222 | 3.2 | 9.7 | 0.00 | 0.00 | 0.00 | 85 | 1006.4 |
| 20260505191957 | 27 | 221 | 3.2 | 9.7 | 0.00 | 0.00 | 0.00 | 86 | 1006.5 |
| 20260505191457 | 27 | 190 | 3.2 | 8.0 | 0.00 | 0.00 | 0.00 | 86 | 1006.5 |
| 20260505190957 | 27 | 208 | 3.2 | 6.4 | 0.00 | 0.00 | 0.00 | 88 | 1006.6 |
| 20260505190457 | 26 | 208 | 3.2 | 8.0 | 0.00 | 0.00 | 0.00 | 88 | 1006.6 |
| 20260505185957 | 26 | 209 | 3.2 | 8.0 | 0.00 | 0.00 | 0.00 | 88 | 1006.6 |